TimeMST,TemperatureF,Dew PointF,Humidity,Sea Level PressureIn,VisibilityMPH,Wind Direction,Wind SpeedMPH,Gust SpeedMPH,PrecipitationIn,Events,Conditions,WindDirDegrees,DateUTC
12:15 AM,33.8,14.0,44,30.47,10.0,SSE,6.9,-,N/A,,Clear,160,2012-11-05 07:15:00
12:35 AM,35.6,14.0,41,30.47,10.0,SE,3.5,-,N/A,,Clear,130,2012-11-05 07:35:00
12:55 AM,35.6,14.0,41,30.47,10.0,SE,3.5,-,N/A,,Clear,130,2012-11-05 07:55:00
1:15 AM,37.4,14.0,38,30.47,10.0,ENE,3.5,-,N/A,,Clear,70,2012-11-05 08:15:00
1:35 AM,32.0,14.0,48,30.46,10.0,SSE,3.5,-,N/A,,Clear,150,2012-11-05 08:35:00
1:55 AM,35.6,14.0,41,30.47,10.0,SE,5.8,-,N/A,,Clear,140,2012-11-05 08:55:00
2:15 AM,32.0,15.8,51,30.46,10.0,SSE,8.1,-,N/A,,Clear,160,2012-11-05 09:15:00
2:35 AM,32.0,15.8,51,30.46,10.0,South,6.9,-,N/A,,Clear,170,2012-11-05 09:35:00
2:55 AM,32.0,15.8,51,30.46,10.0,SSE,5.8,-,N/A,,Clear,160,2012-11-05 09:55:00
3:15 AM,32.0,15.8,51,30.45,10.0,SSE,5.8,-,N/A,,Clear,160,2012-11-05 10:15:00
3:35 AM,32.0,15.8,51,30.45,10.0,SSE,8.1,-,N/A,,Clear,160,2012-11-05 10:35:00
3:55 AM,32.0,15.8,51,30.45,10.0,SSE,8.1,-,N/A,,Clear,160,2012-11-05 10:55:00
4:15 AM,32.0,15.8,51,30.45,10.0,SSE,4.6,-,N/A,,Clear,160,2012-11-05 11:15:00
4:35 AM,32.0,15.8,51,30.45,10.0,SSE,5.8,-,N/A,,Clear,150,2012-11-05 11:35:00
4:55 AM,32.0,15.8,51,30.45,10.0,SSE,5.8,-,N/A,,Clear,160,2012-11-05 11:55:00
5:15 AM,30.2,15.8,55,30.46,10.0,SSE,6.9,-,N/A,,Clear,160,2012-11-05 12:15:00
5:35 AM,30.2,15.8,55,30.46,10.0,SSE,6.9,-,N/A,,Clear,160,2012-11-05 12:35:00
5:55 AM,30.2,15.8,55,30.46,10.0,SSE,6.9,-,N/A,,Clear,160,2012-11-05 12:55:00
6:15 AM,28.4,15.8,59,30.46,10.0,SSE,8.1,-,N/A,,Clear,160,2012-11-05 13:15:00
6:35 AM,30.2,17.6,60,30.46,10.0,SSE,6.9,-,N/A,,Clear,160,2012-11-05 13:35:00
6:55 AM,30.2,17.6,60,30.47,10.0,SSE,6.9,-,N/A,,Clear,160,2012-11-05 13:55:00
7:15 AM,30.2,17.6,60,30.47,10.0,SSE,9.2,-,N/A,,Clear,150,2012-11-05 14:15:00
7:35 AM,35.6,17.6,48,30.47,10.0,SSE,8.1,-,N/A,,Clear,160,2012-11-05 14:35:00
7:55 AM,39.2,19.4,45,30.47,10.0,South,5.8,-,N/A,,Clear,170,2012-11-05 14:55:00
8:15 AM,46.4,19.4,34,30.48,10.0,SSE,5.8,-,N/A,,Clear,150,2012-11-05 15:15:00
8:35 AM,50.0,21.2,32,30.48,10.0,ESE,3.5,-,N/A,,Clear,120,2012-11-05 15:35:00
8:55 AM,55.4,21.2,26,30.48,10.0,ESE,8.1,-,N/A,,Clear,120,2012-11-05 15:55:00
9:15 AM,57.2,21.2,25,30.48,10.0,SE,8.1,-,N/A,,Clear,130,2012-11-05 16:15:00
9:35 AM,59.0,19.4,22,30.48,10.0,Calm,Calm,-,N/A,,Clear,0,2012-11-05 16:35:00
9:55 AM,60.8,21.2,22,30.48,10.0,NNE,4.6,-,N/A,,Clear,20,2012-11-05 16:55:00
10:15 AM,62.6,21.2,20,30.48,10.0,North,4.6,-,N/A,,Clear,360,2012-11-05 17:15:00
10:35 AM,62.6,19.4,19,30.48,10.0,North,3.5,-,N/A,,Clear,360,2012-11-05 17:35:00
10:55 AM,64.4,19.4,18,30.47,10.0,NNE,5.8,-,N/A,,Clear,30,2012-11-05 17:55:00
11:15 AM,66.2,19.4,17,30.47,10.0,North,4.6,-,N/A,,Clear,360,2012-11-05 18:15:00
11:35 AM,66.2,17.6,15,30.46,10.0,NNE,3.5,-,N/A,,Clear,30,2012-11-05 18:35:00
11:55 AM,66.2,19.4,17,30.45,10.0,NNW,4.6,-,N/A,,Clear,330,2012-11-05 18:55:00
12:15 PM,68.0,19.4,16,30.44,10.0,NW,5.8,-,N/A,,Clear,310,2012-11-05 19:15:00
12:35 PM,68.0,19.4,16,30.43,10.0,WNW,4.6,-,N/A,,Clear,300,2012-11-05 19:35:00
12:55 PM,68.0,21.2,17,30.42,10.0,WNW,5.8,-,N/A,,Clear,290,2012-11-05 19:55:00
1:15 PM,69.8,21.2,16,30.41,10.0,NW,8.1,-,N/A,,Clear,310,2012-11-05 20:15:00
1:35 PM,69.8,21.2,16,30.41,10.0,WSW,4.6,-,N/A,,Clear,250,2012-11-05 20:35:00
1:55 PM,69.8,21.2,16,30.40,10.0,West,6.9,-,N/A,,Clear,270,2012-11-05 20:55:00
2:15 PM,71.6,19.4,14,30.40,10.0,NW,6.9,-,N/A,,Clear,320,2012-11-05 21:15:00
2:55 PM,69.8,19.4,15,30.40,10.0,NNW,6.9,-,N/A,,Clear,340,2012-11-05 21:55:00
3:15 PM,69.8,19.4,15,30.40,10.0,North,11.5,-,N/A,,Clear,350,2012-11-05 22:15:00
3:35 PM,69.8,19.4,15,30.40,10.0,North,10.4,-,N/A,,Clear,350,2012-11-05 22:35:00
3:55 PM,68.0,21.2,17,30.40,10.0,North,15.0,-,N/A,,Clear,10,2012-11-05 22:55:00
4:15 PM,66.2,21.2,18,30.40,10.0,NNE,13.8,-,N/A,,Clear,20,2012-11-05 23:15:00
4:35 PM,66.2,23.0,19,30.41,10.0,NE,10.4,-,N/A,,Clear,40,2012-11-05 23:35:00
4:55 PM,64.4,23.0,21,30.41,10.0,NE,16.1,19.6,N/A,,Clear,50,2012-11-05 23:55:00
5:15 PM,62.6,23.0,22,30.42,10.0,ENE,9.2,-,N/A,,Clear,60,2012-11-06 00:15:00
5:55 PM,59.0,23.0,25,30.42,10.0,ENE,5.8,-,N/A,,Clear,70,2012-11-06 00:55:00
6:15 PM,55.4,23.0,29,30.43,10.0,Calm,Calm,-,N/A,,Clear,0,2012-11-06 01:15:00
6:35 PM,55.4,23.0,29,30.43,10.0,SSE,5.8,-,N/A,,Clear,150,2012-11-06 01:35:00
6:55 PM,53.6,23.0,30,30.43,10.0,South,6.9,-,N/A,,Unknown,170,2012-11-06 01:55:00
7:15 PM,50.0,21.2,32,30.42,10.0,SSE,8.1,-,N/A,,Clear,160,2012-11-06 02:15:00
7:35 PM,50.0,23.0,35,30.43,10.0,SE,5.8,-,N/A,,Clear,140,2012-11-06 02:35:00
7:55 PM,50.0,21.2,32,30.43,10.0,Calm,Calm,-,N/A,,Clear,0,2012-11-06 02:55:00
8:15 PM,48.2,21.2,34,30.43,10.0,SSE,3.5,-,N/A,,Clear,160,2012-11-06 03:15:00
8:35 PM,44.6,19.4,37,30.44,10.0,SSE,4.6,-,N/A,,Clear,160,2012-11-06 03:35:00
8:55 PM,41.0,21.2,45,30.44,10.0,SSE,5.8,-,N/A,,Clear,160,2012-11-06 03:55:00
9:15 PM,41.0,21.2,45,30.45,10.0,SSE,5.8,-,N/A,,Clear,150,2012-11-06 04:15:00
9:35 PM,39.2,19.4,45,30.45,10.0,SSE,5.8,-,N/A,,Clear,160,2012-11-06 04:35:00
9:55 PM,39.2,19.4,45,30.45,10.0,SSE,6.9,-,N/A,,Clear,160,2012-11-06 04:55:00
10:15 PM,37.4,19.4,48,30.45,10.0,SSE,10.4,-,N/A,,Clear,150,2012-11-06 05:15:00
10:35 PM,37.4,21.2,52,30.45,10.0,SSE,6.9,-,N/A,,Clear,160,2012-11-06 05:35:00
10:55 PM,37.4,19.4,48,30.44,10.0,SSE,6.9,-,N/A,,Clear,160,2012-11-06 05:55:00
11:15 PM,37.4,19.4,48,30.44,10.0,SSE,8.1,-,N/A,,Clear,150,2012-11-06 06:15:00
11:35 PM,35.6,19.4,52,30.44,10.0,South,5.8,-,N/A,,Clear,170,2012-11-06 06:35:00
11:55 PM,35.6,19.4,52,30.44,10.0,SSE,8.1,-,N/A,,Clear,150,2012-11-06 06:55:00